Regional Weather Roundup
Issued by NWS Sterling, VA

Home | Current Version | Previous Version | Text Only | Print | Product List | Glossary Off
Versions: 1 2 3 4 5 6 7 8 9 10 11 12 13 14 15 16 17 18 19 20 21 22 23 24 25 26 27 28 29 30 31 32 33 34 35 36 37 38 39 40 41 42 43 44 45 46 47 48 49 50

089
ASUS41 KLWX 052211
RWRLWX

REGIONAL WEATHER ROUNDUP
NATIONAL WEATHER SERVICE BALTIMORE MD/WASHINGTON DC
500 PM EST MON DEC 05 2016

Note: "FAIR" indicates few or no clouds below 12,000 feet
with no significant weather and/or obstructions to visibility.
 TC=TEMPERATURE CELSIUS

 * =Non NWS site. Station does not report precipitation (e.g. rain,
    snow, etc.), thunder, or fog.

DCZ001-MDZ009-015-VAZ040>042-051-053>054-052300-
WASHINGTON METRO

CITY           SKY/WX    TMP DP  RH WIND       PRES   REMARKS
WASHINGTON NAT CLOUDY    51  36  56 N9        30.05R
DULLES         CLOUDY    51  32  48 N5        30.05R
ANDREWS AFB    CLOUDY    47  35  63 N7        30.03S
FT BELVOIR     PTCLDY    53  34  48 CALM      30.04R
QUANTICO       PTCLDY    50  39  66 VRB3      30.05R
COLLEGE PARK*  CLOUDY    46  36  66 CALM      30.05R
LEESBURG*      PTCLDY    52  36  54 CALM      30.06R
GAITHERSBURG*  PTCLDY    46  30  53 CALM      30.08R

$$

MDZ006>007-011-014-052300-
BALTIMORE METRO

CITY           SKY/WX    TMP DP  RH WIND       PRES   REMARKS
BWI AIRPORT    MOCLDY    49  36  61 NW6       30.05R
MD SCIENCE CTR   N/A     52  34  50 MISG      30.04R
MARTIN STATE   PTCLDY    46  37  71 NW5       30.06R
ANNAPOLIS      PTCLDY    51  37  58 NW3       30.05R
FORT MEADE*    MOCLDY    45  36  70 CALM      30.07R

$$

MDZ012-015-019>023-052300-
MARYLAND EASTERN SHORE

CITY           SKY/WX    TMP DP  RH WIND       PRES   REMARKS
OCEAN CITY     CLEAR     45  39  79 NE5       30.03R
SALISBURY      CLEAR     45  39  79 N7        30.03R
BAY BRIDGE AP* PTCLDY    48  37  66 CALM      30.05R
CAMBRIDGE*     CLOUDY    43  41  93 CALM      30.04R
EASTON*        MOCLDY    50  37  62 CALM      30.08R

$$

MDZ017>025-052300-
SOUTHERN MARYLAND

CITY           SKY/WX    TMP DP  RH WIND       PRES   REMARKS
PATUXENT RIVER PTCLDY    47  40  76 N3        30.04R
ST INIGOES     CLEAR     46  42  86 CALM      30.04R
LEONARDTOWN*   CLEAR     45  41  87 CALM      30.06R

$$

MDZ003>005-052300-
NORTH CENTRAL MARYLAND

CITY           SKY/WX    TMP DP  RH WIND       PRES   REMARKS
FREDERICK*     CLEAR     48  36  61 VRB5      30.08R
HAGERSTOWN APT CLOUDY    46  29  51 N7        30.05R
WESTMINSTER*   PTCLDY    45  30  57 NW6       30.04R

$$

MDZ501>502-052300-
WESTERN MARYLAND

CITY           SKY/WX    TMP DP  RH WIND       PRES   REMARKS
OAKLAND*       CLOUDY    32  30  93 NW3       30.02R
CUMBERLAND*    NOT AVBL

$$

VAZ025>031-052300-
SHENANDOAH VALLEY

CITY           SKY/WX    TMP DP  RH WIND       PRES   REMARKS
WINCHESTER*    CLOUDY    46  32  57 NW5       30.05R
FRONT ROYAL*   FAIR      50  32  50 CALM      30.03S
LURAY*         FAIR      50  32  50 N6        30.02S
NEW MARKET*    FAIR      49  30  48 NE3       30.02R
STAUNTON*      PTCLDY    46  34  62 CALM      30.03R
WAYNESBORO*    FAIR      48  31  52 CALM      30.01R

$$

WVZ021-048>050-054>055-052300-
EASTERN WEST VIRGINIA PANHANDLE

CITY           SKY/WX    TMP DP  RH WIND       PRES   REMARKS
MARTINSBURG    CLOUDY    47  30  51 N7        30.05R
PETERSBURG*    CLOUDY    49  33  54 N5        30.05S

$$

VAZ036>039-050-052300-
CENTRAL FOOTHILLS

CITY           SKY/WX    TMP DP  RH WIND       PRES   REMARKS
CHARLOTTESVILL CLEAR     54  36  50 CALM      30.01S
CULPEPER*      PTCLDY    47  42  80 CALM      30.05R
ORANGE*          N/A     50  43  76 CALM      30.05R
GORDONSVILLE*  FAIR      47  43  87 CALM      30.02S
WARRENTON*     FAIR      45  35  69 CALM      30.03S

$$

VAZ055>057-052300-
NORTH AND CENTRAL PIEDMONT

CITY           SKY/WX    TMP DP  RH WIND       PRES   REMARKS
FREDERICKSBRG* CLEAR     48  43  82 SE3       30.04R
STAFFORD*      CLEAR     46  39  77 CALM      30.08R

$$

NCZ024-NYZ072-PAZ021-071-VAZ022-071-052300-
OTHER REGIONAL OBSERVATIONS

CITY           SKY/WX    TMP DP  RH WIND       PRES   REMARKS
NEW YORK CITY  PTCLDY    47  32  56 NW7       30.04R
PHILADELPHIA   PTCLDY    49  32  52 NW8       30.04S
PITTSBURGH     CLOUDY    41  29  62 W5        30.08R
ROANOKE        MOCLDY    53  35  50 NE5       30.03R
RICHMOND       CLOUDY    47  40  76 NE5       30.04S
RALEIGH        MOCLDY    55  41  59 NE7       30.00F

$$

ANZ530>537-052300-
MARINE OBSERVATIONS

STATION/POSITION TIME  TEMP    WIND        PRES
                       AIR SEA DIR/SP/G
                 (UTC) (F)     (DEG/KT/KT) (MB)
THOMAS PT LIGHT  2200   51 49  280/  2/  2   N/A
BALT KEY BRIDGE  2148   51     290/  7/  8 1017.4R
COVE POINT       2148   48      30/  4/  4 1017.7R
LEWISETTA        2148   48 49  160/  4/  4 1017.0R
SOLOMONS ISLAND  2148           40/  4/  5   N/A
PINEY POINT      2148           60/  2/  3   N/A

$$





USA.gov is the U.S. government's official web portal to all federal, state and local government web resources and services.